| time (UTC) | temp F | wind direction | speed MPH | gust MPH | rain 1hr in | rain 24hr in | rain mn in | humidity % | barometer mb |
| 20260502215003 | 65 | 267 | 1.0 | 9.0 | 0.00 | 0.00 | 0.00 | 31 | 1013.4 |
| 20260502214502 | 65 | 259 | 2.0 | 9.0 | 0.00 | 0.00 | 0.00 | 30 | 1013.5 |
| 20260502214002 | 66 | 206 | 1.0 | 8.0 | 0.00 | 0.00 | 0.00 | 30 | 1013.6 |
| 20260502213504 | 66 | 57 | 1.0 | 8.0 | 0.00 | 0.00 | 0.00 | 31 | 1013.6 |
| 20260502213006 | 66 | 233 | 1.0 | 6.0 | 0.00 | 0.00 | 0.00 | 30 | 1013.6 |
| 20260502212503 | 66 | 324 | 2.0 | 9.0 | 0.00 | 0.00 | 0.00 | 28 | 1013.8 |
| 20260502212004 | 67 | 327 | 3.0 | 9.0 | 0.00 | 0.00 | 0.00 | 30 | 1013.9 |
| 20260502211523 | 66 | 352 | 1.0 | 6.0 | 0.00 | 0.00 | 0.00 | 30 | 1013.9 |
| 20260502211003 | 66 | 181 | 1.0 | 5.0 | 0.00 | 0.00 | 0.00 | 31 | 1013.9 |
| 20260502210504 | 66 | 211 | 1.0 | 7.0 | 0.00 | 0.00 | 0.00 | 31 | 1014.0 |
| 20260502210009 | 66 | 284 | 1.0 | 9.0 | 0.00 | 0.00 | 0.00 | 28 | 1014.2 |
| 20260502205505 | 67 | 200 | 3.0 | 9.0 | 0.00 | 0.00 | 0.00 | 28 | 1014.2 |
| 20260502205003 | 66 | 186 | 1.0 | 9.0 | 0.00 | 0.00 | 0.00 | 27 | 1014.3 |
| 20260502204502 | 67 | 34 | 1.0 | 9.0 | 0.00 | 0.00 | 0.00 | 30 | 1014.4 |
| 20260502204004 | 66 | 196 | 2.0 | 6.0 | 0.00 | 0.00 | 0.00 | 28 | 1014.5 |
| 20260502203504 | 65 | 82 | 1.0 | 6.0 | 0.00 | 0.00 | 0.00 | 29 | 1014.6 |
| 20260502203006 | 65 | 18 | 2.0 | 6.0 | 0.00 | 0.00 | 0.00 | 30 | 1014.7 |
| 20260502202506 | 64 | 331 | 1.0 | 6.0 | 0.00 | 0.00 | 0.00 | 33 | 1014.8 |
| 20260502202003 | 65 | 41 | 1.0 | 9.0 | 0.00 | 0.00 | 0.00 | 30 | 1014.8 |
| 20260502201503 | 65 | 131 | 3.0 | 9.0 | 0.00 | 0.00 | 0.00 | 28 | 1015.0 |
| 20260502201003 | 65 | 270 | 3.0 | 9.0 | 0.00 | 0.00 | 0.00 | 28 | 1015.0 |
| 20260502200503 | 65 | 221 | 1.0 | 5.0 | 0.00 | 0.00 | 0.00 | 28 | 1015.1 |
| 20260502200014 | 65 | 335 | 1.0 | 5.0 | 0.00 | 0.00 | 0.00 | 31 | 1015.2 |
| 20260502195503 | 64 | 173 | 1.0 | 5.0 | 0.00 | 0.00 | 0.00 | 27 | 1015.3 |
| 20260502195003 | 65 | 222 | 1.0 | 5.0 | 0.00 | 0.00 | 0.00 | 28 | 1015.4 |
| 20260502194517 | 65 | 41 | 0.0 | 9.0 | 0.00 | 0.00 | 0.00 | 33 | 1015.3 |
| 20260502194005 | 65 | 294 | 3.0 | 9.0 | 0.00 | 0.00 | 0.00 | 29 | 1015.4 |
| 20260502193504 | 64 | 269 | 2.0 | 9.0 | 0.00 | 0.00 | 0.00 | 35 | 1015.5 |
| 20260502193003 | 64 | 237 | 3.0 | 9.0 | 0.00 | 0.00 | 0.00 | 28 | 1015.6 |
| 20260502192504 | 64 | 272 | 3.0 | 8.0 | 0.00 | 0.00 | 0.00 | 28 | 1015.7 |
| 20260502192003 | 64 | 244 | 1.0 | 7.0 | 0.00 | 0.00 | 0.00 | 30 | 1015.8 |
| 20260502191514 | 63 | 150 | 1.0 | 7.0 | 0.00 | 0.00 | 0.00 | 30 | 1015.8 |
| 20260502191006 | 63 | 299 | 1.0 | 8.0 | 0.00 | 0.00 | 0.00 | 33 | 1015.9 |
| 20260502190503 | 62 | 222 | 1.0 | 10.0 | 0.00 | 0.00 | 0.00 | 30 | 1016.1 |
| 20260502190014 | 62 | 262 | 1.0 | 10.0 | 0.00 | 0.00 | 0.00 | 31 | 1016.2 |
| 20260502185506 | 62 | 164 | 3.0 | 7.0 | 0.00 | 0.00 | 0.00 | 29 | 1016.2 |
| 20260502185008 | 61 | 227 | 2.0 | 5.0 | 0.00 | 0.00 | 0.00 | 29 | 1016.3 |
| 20260502184505 | 62 | 220 | 1.0 | 7.0 | 0.00 | 0.00 | 0.00 | 28 | 1016.4 |
| 20260502184004 | 63 | 88 | 2.0 | 7.0 | 0.00 | 0.00 | 0.00 | 31 | 1016.5 |
| 20260502183509 | 62 | 216 | 1.0 | 9.0 | 0.00 | 0.00 | 0.00 | 31 | 1016.6 |
| 20260502183022 | 62 | 125 | 1.0 | 10.0 | 0.00 | 0.00 | 0.00 | 31 | 1016.8 |
| 20260502182502 | 62 | 228 | 1.0 | 10.0 | 0.00 | 0.00 | 0.00 | 31 | 1016.8 |
| 20260502182008 | 61 | 157 | 4.0 | 10.0 | 0.00 | 0.00 | 0.00 | 29 | 1016.9 |
| 20260502181506 | 61 | 270 | 2.0 | 10.0 | 0.00 | 0.00 | 0.00 | 34 | 1016.9 |
| 20260502181005 | 61 | 213 | 4.0 | 10.0 | 0.00 | 0.00 | 0.00 | 31 | 1016.8 |
| 20260502180503 | 61 | 162 | 2.0 | 9.0 | 0.00 | 0.00 | 0.00 | 32 | 1017.0 |
| 20260502170510 | 60 | 209 | 1.0 | 4.0 | 0.00 | 0.00 | 0.00 | 37 | 1018.0 |
| 20260502164006 | 59 | 248 | 1.0 | 8.0 | 0.00 | 0.00 | 0.00 | 34 | 1018.2 |
| 20260502163504 | 59 | 109 | 2.0 | 8.0 | 0.00 | 0.00 | 0.00 | 34 | 1018.2 |
| 20260502163018 | 59 | 205 | 1.0 | 8.0 | 0.00 | 0.00 | 0.00 | 34 | 1018.2 |
| 20260502162506 | 59 | 47 | 2.0 | 8.0 | 0.00 | 0.00 | 0.00 | 35 | 1018.3 |
| 20260502162003 | 59 | 163 | 2.0 | 5.0 | 0.00 | 0.00 | 0.00 | 34 | 1018.3 |
| 20260502161516 | 59 | 263 | 1.0 | 6.0 | 0.00 | 0.00 | 0.00 | 36 | 1018.3 |
| 20260502161008 | 59 | 304 | 1.0 | 10.0 | 0.00 | 0.00 | 0.00 | 35 | 1018.3 |
| 20260502160502 | 59 | 40 | 1.0 | 10.0 | 0.00 | 0.00 | 0.00 | 37 | 1018.4 |
| 20260502152006 | 58 | 243 | 1.0 | 12.0 | 0.00 | 0.00 | 0.00 | 37 | 1018.6 |
| 20260502151518 | 57 | 229 | 4.0 | 12.0 | 0.00 | 0.00 | 0.00 | 36 | 1018.6 |
| 20260502151005 | 57 | 270 | 2.0 | 5.0 | 0.00 | 0.00 | 0.00 | 41 | 1018.7 |
| 20260502150508 | 56 | 101 | 1.0 | 5.0 | 0.00 | 0.00 | 0.00 | 39 | 1018.7 |
| 20260502130507 | 33 | 190 | 1.0 | 5.0 | 0.00 | 0.00 | 0.00 | 84 | 1018.9 |
| 20260502123503 | 29 | 17 | 0.0 | 2.0 | 0.00 | 0.00 | 0.00 | 81 | 1019.1 |
| 20260502123004 | 29 | 360 | 0.0 | 1.0 | 0.00 | 0.00 | 0.00 | 80 | 1019.1 |
| 20260502122503 | 29 | 360 | 0.0 | 0.0 | 0.00 | 0.00 | 0.00 | 80 | 1019.2 |
| 20260502122003 | 29 | 360 | 0.0 | 0.0 | 0.00 | 0.00 | 0.00 | 79 | 1019.2 |
| 20260502121508 | 29 | 360 | 0.0 | 0.0 | 0.00 | 0.00 | 0.00 | 79 | 1019.1 |
| 20260502121006 | 29 | 360 | 0.0 | 0.0 | 0.00 | 0.00 | 0.00 | 78 | 1019.1 |
| 20260502120501 | 29 | 360 | 0.0 | 0.0 | 0.00 | 0.00 | 0.00 | 78 | 1019.1 |
| 20260502115503 | 28 | 360 | 0.0 | 0.0 | 0.00 | 0.00 | 0.00 | 77 | 1019.1 |
| 20260502115006 | 28 | 360 | 0.0 | 0.0 | 0.00 | 0.00 | 0.00 | 77 | 1019.1 |
| 20260502114507 | 28 | 360 | 0.0 | 0.0 | 0.00 | 0.00 | 0.00 | 77 | 1019.0 |
| 20260502114003 | 28 | 360 | 0.0 | 0.0 | 0.00 | 0.00 | 0.00 | 77 | 1019.0 |
| 20260502113503 | 28 | 360 | 0.0 | 0.0 | 0.00 | 0.00 | 0.00 | 77 | 1019.0 |
| 20260502113007 | 28 | 360 | 0.0 | 0.0 | 0.00 | 0.00 | 0.00 | 76 | 1018.9 |
| 20260502112503 | 28 | 360 | 0.0 | 0.0 | 0.00 | 0.00 | 0.00 | 76 | 1018.9 |
| 20260502112003 | 28 | 360 | 0.0 | 0.0 | 0.00 | 0.00 | 0.00 | 76 | 1018.9 |
| 20260502111504 | 29 | 360 | 0.0 | 0.0 | 0.00 | 0.00 | 0.00 | 76 | 1018.9 |
| 20260502111003 | 29 | 360 | 0.0 | 0.0 | 0.00 | 0.00 | 0.00 | 76 | 1018.9 |
| 20260502110503 | 29 | 360 | 0.0 | 0.0 | 0.00 | 0.00 | 0.00 | 76 | 1018.9 |
| 20260502110009 | 29 | 360 | 0.0 | 0.0 | 0.00 | 0.00 | 0.00 | 76 | 1018.9 |
| 20260502105504 | 29 | 360 | 0.0 | 0.0 | 0.00 | 0.00 | 0.00 | 76 | 1018.9 |
| 20260502105004 | 29 | 360 | 0.0 | 0.0 | 0.00 | 0.00 | 0.00 | 76 | 1018.9 |
| 20260502104513 | 29 | 360 | 0.0 | 0.0 | 0.00 | 0.00 | 0.00 | 75 | 1018.9 |
| 20260502104007 | 29 | 360 | 0.0 | 0.0 | 0.00 | 0.00 | 0.00 | 75 | 1018.9 |
| 20260502103503 | 29 | 360 | 0.0 | 0.0 | 0.00 | 0.00 | 0.00 | 75 | 1018.9 |
| 20260502103011 | 29 | 360 | 0.0 | 0.0 | 0.00 | 0.00 | 0.00 | 75 | 1018.8 |
| 20260502102507 | 29 | 360 | 0.0 | 0.0 | 0.00 | 0.00 | 0.00 | 75 | 1018.8 |
| 20260502102007 | 29 | 360 | 0.0 | 0.0 | 0.00 | 0.00 | 0.00 | 75 | 1018.9 |
| 20260502101510 | 29 | 360 | 0.0 | 0.0 | 0.00 | 0.00 | 0.00 | 75 | 1018.8 |
| 20260502101003 | 29 | 360 | 0.0 | 0.0 | 0.00 | 0.00 | 0.00 | 75 | 1018.9 |
| 20260502100503 | 29 | 360 | 0.0 | 0.0 | 0.00 | 0.00 | 0.00 | 75 | 1018.8 |
| 20260502091515 | 30 | 360 | 0.0 | 0.0 | 0.00 | 0.00 | 0.00 | 74 | 1018.9 |
| 20260502091007 | 30 | 360 | 0.0 | 0.0 | 0.00 | 0.00 | 0.00 | 74 | 1018.9 |
| 20260502090504 | 30 | 360 | 0.0 | 0.0 | 0.00 | 0.00 | 0.00 | 73 | 1018.8 |
| 20260502071511 | 32 | 360 | 0.0 | 0.0 | 0.00 | 0.00 | 0.00 | 70 | 1019.1 |
| 20260502071008 | 32 | 360 | 0.0 | 0.0 | 0.00 | 0.00 | 0.00 | 69 | 1019.1 |
| 20260502070506 | 32 | 360 | 0.0 | 0.0 | 0.00 | 0.00 | 0.00 | 69 | 1019.1 |
| 20260502070022 | 32 | 360 | 0.0 | 0.0 | 0.00 | 0.00 | 0.00 | 69 | 1019.1 |
| 20260502065507 | 32 | 360 | 0.0 | 0.0 | 0.00 | 0.00 | 0.00 | 69 | 1019.1 |
| 20260502065012 | 32 | 360 | 0.0 | 0.0 | 0.00 | 0.00 | 0.00 | 68 | 1019.2 |
| 20260502064529 | 33 | 360 | 0.0 | 0.0 | 0.00 | 0.00 | 0.00 | 68 | 1019.2 |
| 20260502064003 | 33 | 360 | 0.0 | 0.0 | 0.00 | 0.00 | 0.00 | 68 | 1019.2 |
| 20260502063504 | 33 | 360 | 0.0 | 0.0 | 0.00 | 0.00 | 0.00 | 68 | 1019.2 |
| 20260502063010 | 33 | 360 | 0.0 | 0.0 | 0.00 | 0.00 | 0.00 | 67 | 1019.2 |
| 20260502062504 | 33 | 360 | 0.0 | 0.0 | 0.00 | 0.00 | 0.00 | 67 | 1019.2 |
| 20260502062006 | 33 | 360 | 0.0 | 0.0 | 0.00 | 0.00 | 0.00 | 67 | 1019.1 |
| 20260502061509 | 33 | 360 | 0.0 | 0.0 | 0.00 | 0.00 | 0.00 | 66 | 1019.3 |
| 20260502061004 | 34 | 360 | 0.0 | 0.0 | 0.00 | 0.00 | 0.00 | 66 | 1019.3 |
| 20260502060503 | 34 | 360 | 0.0 | 0.0 | 0.00 | 0.00 | 0.00 | 66 | 1019.1 |
| 20260502060014 | 34 | 360 | 0.0 | 0.0 | 0.00 | 0.00 | 0.00 | 65 | 1019.1 |
| 20260502055506 | 34 | 360 | 0.0 | 0.0 | 0.00 | 0.00 | 0.00 | 65 | 1019.0 |
| 20260502055003 | 34 | 360 | 0.0 | 0.0 | 0.00 | 0.00 | 0.00 | 65 | 1019.0 |
| 20260502054514 | 34 | 360 | 0.0 | 0.0 | 0.00 | 0.00 | 0.00 | 64 | 1019.0 |
| 20260502054011 | 35 | 360 | 0.0 | 0.0 | 0.00 | 0.00 | 0.00 | 64 | 1019.0 |
| 20260502053508 | 35 | 360 | 0.0 | 0.0 | 0.00 | 0.00 | 0.00 | 64 | 1019.0 |
| 20260502053010 | 35 | 360 | 0.0 | 0.0 | 0.00 | 0.00 | 0.00 | 64 | 1019.0 |
| 20260502052507 | 35 | 360 | 0.0 | 0.0 | 0.00 | 0.00 | 0.00 | 63 | 1019.0 |
| 20260502052007 | 35 | 360 | 0.0 | 0.0 | 0.00 | 0.00 | 0.00 | 63 | 1019.0 |
| 20260502051507 | 35 | 360 | 0.0 | 0.0 | 0.00 | 0.00 | 0.00 | 62 | 1019.0 |
| 20260502051002 | 36 | 360 | 0.0 | 0.0 | 0.00 | 0.00 | 0.00 | 62 | 1019.0 |
| 20260502050503 | 36 | 360 | 0.0 | 0.0 | 0.00 | 0.00 | 0.00 | 61 | 1018.9 |
| 20260502050011 | 36 | 360 | 0.0 | 0.0 | 0.00 | 0.00 | 0.00 | 61 | 1019.0 |
| 20260502045504 | 36 | 360 | 0.0 | 0.0 | 0.00 | 0.00 | 0.00 | 61 | 1018.9 |
| 20260502045006 | 36 | 360 | 0.0 | 0.0 | 0.00 | 0.00 | 0.00 | 60 | 1018.9 |
| 20260502044514 | 37 | 360 | 0.0 | 0.0 | 0.00 | 0.00 | 0.00 | 60 | 1018.9 |
| 20260502044007 | 37 | 360 | 0.0 | 1.0 | 0.00 | 0.00 | 0.00 | 59 | 1019.0 |
| 20260502043503 | 37 | 360 | 0.0 | 1.0 | 0.00 | 0.00 | 0.00 | 59 | 1019.0 |
| 20260502043022 | 37 | 360 | 0.0 | 0.0 | 0.00 | 0.00 | 0.00 | 58 | 1019.0 |
| 20260502042507 | 38 | 360 | 0.0 | 0.0 | 0.00 | 0.00 | 0.00 | 58 | 1018.9 |
| 20260502042004 | 38 | 360 | 0.0 | 0.0 | 0.00 | 0.00 | 0.00 | 57 | 1019.0 |
| 20260502041517 | 38 | 360 | 0.0 | 0.0 | 0.00 | 0.00 | 0.00 | 56 | 1019.0 |
| 20260502041007 | 38 | 360 | 0.0 | 0.0 | 0.00 | 0.00 | 0.00 | 56 | 1018.9 |
| 20260502040513 | 39 | 360 | 0.0 | 0.0 | 0.00 | 0.00 | 0.00 | 56 | 1018.9 |
| 20260502040013 | 39 | 360 | 0.0 | 0.0 | 0.00 | 0.00 | 0.00 | 55 | 1018.9 |
| 20260502035507 | 39 | 360 | 0.0 | 0.0 | 0.00 | 0.00 | 0.00 | 54 | 1018.9 |
| 20260502035004 | 39 | 360 | 0.0 | 0.0 | 0.00 | 0.00 | 0.00 | 54 | 1018.9 |
| 20260502034511 | 40 | 360 | 0.0 | 0.0 | 0.00 | 0.00 | 0.00 | 54 | 1018.9 |
| 20260502034007 | 40 | 360 | 0.0 | 0.0 | 0.00 | 0.00 | 0.00 | 53 | 1018.9 |
| 20260502033506 | 40 | 360 | 0.0 | 0.0 | 0.00 | 0.00 | 0.00 | 52 | 1019.0 |
| 20260502033019 | 41 | 360 | 0.0 | 0.0 | 0.00 | 0.00 | 0.00 | 51 | 1019.0 |
| 20260502032505 | 41 | 360 | 0.0 | 0.0 | 0.00 | 0.00 | 0.00 | 51 | 1018.9 |
| 20260502032007 | 41 | 360 | 0.0 | 0.0 | 0.00 | 0.00 | 0.00 | 51 | 1019.0 |
| 20260502031520 | 42 | 360 | 0.0 | 0.0 | 0.00 | 0.00 | 0.00 | 51 | 1019.0 |
| 20260502031006 | 42 | 360 | 0.0 | 0.0 | 0.00 | 0.00 | 0.00 | 51 | 1018.9 |
| 20260502030505 | 42 | 360 | 0.0 | 0.0 | 0.00 | 0.00 | 0.00 | 50 | 1018.9 |
| 20260502030022 | 42 | 360 | 0.0 | 0.0 | 0.00 | 0.00 | 0.00 | 49 | 1018.9 |
| 20260502025507 | 43 | 360 | 0.0 | 0.0 | 0.00 | 0.00 | 0.00 | 49 | 1018.9 |
| 20260502025005 | 43 | 360 | 0.0 | 0.0 | 0.00 | 0.00 | 0.00 | 48 | 1018.9 |
| 20260502024519 | 44 | 360 | 0.0 | 0.0 | 0.00 | 0.00 | 0.00 | 47 | 1018.9 |
| 20260502024008 | 44 | 360 | 0.0 | 0.0 | 0.00 | 0.00 | 0.00 | 46 | 1018.8 |
| 20260502023504 | 44 | 360 | 0.0 | 0.0 | 0.00 | 0.00 | 0.00 | 46 | 1018.8 |
| 20260502023014 | 45 | 360 | 0.0 | 0.0 | 0.00 | 0.00 | 0.00 | 46 | 1018.8 |
| 20260502022511 | 45 | 360 | 0.0 | 0.0 | 0.00 | 0.00 | 0.00 | 45 | 1018.8 |
| 20260502022006 | 45 | 360 | 0.0 | 0.0 | 0.00 | 0.00 | 0.00 | 44 | 1018.8 |
| 20260502021518 | 46 | 360 | 0.0 | 0.0 | 0.00 | 0.00 | 0.00 | 43 | 1018.8 |
| 20260502021008 | 46 | 360 | 0.0 | 0.0 | 0.00 | 0.00 | 0.00 | 43 | 1018.8 |
| 20260502020507 | 46 | 360 | 0.0 | 0.0 | 0.00 | 0.00 | 0.00 | 41 | 1018.7 |
| 20260502020024 | 47 | 360 | 0.0 | 0.0 | 0.00 | 0.00 | 0.00 | 41 | 1018.7 |
| 20260502015508 | 47 | 360 | 0.0 | 1.0 | 0.00 | 0.00 | 0.00 | 40 | 1018.6 |
| 20260502015009 | 47 | 360 | 0.0 | 1.0 | 0.00 | 0.00 | 0.00 | 40 | 1018.6 |
| 20260502014528 | 47 | 360 | 0.0 | 1.0 | 0.00 | 0.00 | 0.00 | 40 | 1018.6 |
| 20260502014011 | 48 | 360 | 0.0 | 2.0 | 0.00 | 0.00 | 0.00 | 40 | 1018.6 |
| 20260502013506 | 48 | 360 | 0.0 | 2.0 | 0.00 | 0.00 | 0.00 | 39 | 1018.5 |
| 20260502013022 | 48 | 344 | 0.0 | 2.0 | 0.00 | 0.00 | 0.00 | 40 | 1018.5 |
| 20260502012511 | 48 | 352 | 0.0 | 2.0 | 0.00 | 0.00 | 0.00 | 39 | 1018.4 |
| 20260502012010 | 48 | 5 | 0.0 | 3.0 | 0.00 | 0.00 | 0.00 | 39 | 1018.4 |
| 20260502011536 | 48 | 5 | 0.0 | 5.0 | 0.00 | 0.00 | 0.00 | 39 | 1018.4 |
| 20260502011007 | 49 | 26 | 0.0 | 5.0 | 0.00 | 0.00 | 0.00 | 38 | 1018.3 |
| 20260502010504 | 49 | 352 | 0.0 | 4.0 | 0.00 | 0.00 | 0.00 | 38 | 1018.3 |
| 20260502010019 | 49 | 11 | 1.0 | 4.0 | 0.00 | 0.00 | 0.00 | 38 | 1018.3 |
| 20260502005507 | 49 | 12 | 0.0 | 5.0 | 0.00 | 0.00 | 0.00 | 38 | 1018.3 |
| 20260502005007 | 49 | 5 | 0.0 | 6.0 | 0.00 | 0.00 | 0.00 | 37 | 1018.2 |
| 20260502004526 | 49 | 25 | 3.0 | 7.0 | 0.00 | 0.00 | 0.00 | 36 | 1018.2 |
| 20260502004007 | 49 | 351 | 1.0 | 7.0 | 0.00 | 0.00 | 0.00 | 36 | 1018.0 |
| 20260502003509 | 49 | 27 | 2.0 | 7.0 | 0.00 | 0.00 | 0.00 | 36 | 1018.0 |
| 20260502003028 | 49 | 21 | 1.0 | 6.0 | 0.00 | 0.00 | 0.00 | 36 | 1018.0 |
| 20260502002511 | 49 | 351 | 2.0 | 8.0 | 0.00 | 0.00 | 0.00 | 37 | 1018.0 |
| 20260502002010 | 49 | 343 | 1.0 | 8.0 | 0.00 | 0.00 | 0.00 | 36 | 1018.0 |
| 20260502001528 | 49 | 310 | 2.0 | 5.0 | 0.00 | 0.00 | 0.00 | 36 | 1017.9 |
| 20260502001010 | 49 | 5 | 1.0 | 5.0 | 0.00 | 0.00 | 0.00 | 37 | 1017.9 |
| 20260502000510 | 50 | 352 | 0.0 | 3.0 | 0.00 | 0.00 | 0.00 | 36 | 1017.9 |
| 20260502000016 | 50 | 5 | 1.0 | 3.0 | 0.00 | 0.00 | 0.00 | 37 | 1017.9 |
| 20260501235509 | 50 | 15 | 0.0 | 5.0 | 0.00 | 0.00 | 0.00 | 37 | 1017.9 |
| 20260501235007 | 50 | 360 | 1.0 | 5.0 | 0.00 | 0.00 | 0.00 | 35 | 1017.9 |
| 20260501234521 | 51 | 335 | 1.0 | 9.0 | 0.00 | 0.00 | 0.00 | 35 | 1017.8 |
| 20260501234008 | 51 | 360 | 1.0 | 9.0 | 0.00 | 0.00 | 0.00 | 34 | 1017.8 |
| 20260501233507 | 51 | 17 | 3.0 | 9.0 | 0.00 | 0.00 | 0.00 | 34 | 1017.8 |
| 20260501233020 | 51 | 33 | 2.0 | 9.0 | 0.00 | 0.00 | 0.00 | 33 | 1017.8 |
| 20260501232513 | 52 | 26 | 1.0 | 6.0 | 0.00 | 0.00 | 0.00 | 34 | 1017.8 |
| 20260501232009 | 52 | 352 | 3.0 | 8.0 | 0.00 | 0.00 | 0.00 | 34 | 1017.8 |
| 20260501231532 | 52 | 5 | 1.0 | 8.0 | 0.00 | 0.00 | 0.00 | 35 | 1017.8 |
| 20260501231003 | 52 | 313 | 1.0 | 7.0 | 0.00 | 0.00 | 0.00 | 34 | 1017.7 |
| 20260501230509 | 53 | 348 | 2.0 | 7.0 | 0.00 | 0.00 | 0.00 | 35 | 1017.7 |
| 20260501230014 | 53 | 336 | 1.0 | 5.0 | 0.00 | 0.00 | 0.00 | 34 | 1017.7 |
| 20260501225505 | 53 | 313 | 1.0 | 9.0 | 0.00 | 0.00 | 0.00 | 33 | 1017.7 |
| 20260501225011 | 53 | 55 | 2.0 | 9.0 | 0.00 | 0.00 | 0.00 | 33 | 1017.7 |
| 20260501224510 | 53 | 352 | 3.0 | 9.0 | 0.00 | 0.00 | 0.00 | 33 | 1017.7 |
| 20260501224006 | 53 | 331 | 1.0 | 11.0 | 0.00 | 0.00 | 0.00 | 33 | 1017.7 |
| 20260501223508 | 53 | 345 | 5.0 | 11.0 | 0.00 | 0.00 | 0.00 | 33 | 1017.7 |
| 20260501223021 | 53 | 40 | 3.0 | 8.0 | 0.00 | 0.00 | 0.00 | 33 | 1017.7 |
| 20260501222504 | 53 | 331 | 2.0 | 9.0 | 0.00 | 0.00 | 0.00 | 32 | 1017.7 |
| 20260501222007 | 53 | 345 | 2.0 | 9.0 | 0.00 | 0.00 | 0.00 | 33 | 1017.7 |
| 20260501221522 | 53 | 10 | 4.0 | 9.0 | 0.00 | 0.00 | 0.00 | 33 | 1017.7 |
| 20260501221007 | 53 | 360 | 2.0 | 9.0 | 0.00 | 0.00 | 0.00 | 33 | 1017.7 |
| 20260501220507 | 53 | 349 | 1.0 | 9.0 | 0.00 | 0.00 | 0.00 | 34 | 1017.7 |
| 20260501220037 | 53 | 311 | 3.0 | 9.0 | 0.00 | 0.00 | 0.00 | 32 | 1017.7 |
| 20260501215506 | 54 | 35 | 2.0 | 10.0 | 0.00 | 0.00 | 0.00 | 33 | 1017.7 |